AirNav   Air Wisconsin pilot careers
 
 366 users online  

6WI1 Winch Airfield
Wisconsin Rapids, Wisconsin, USA

GOING TO WISCONSIN RAPIDS?


FAA INFORMATION EFFECTIVE 07 DECEMBER 2017

Location

FAA Identifier: 6WI1
Lat/Long: 44-29-42.8610N / 089-54-45.4570W
44-29.714350N / 089-54.757617W
44.4952392 / -89.9126269
(estimated)
Elevation: 1120 ft. / 341 m (estimated)
Variation: 01E (1985)
From city: 6 miles NE of WISCONSIN RAPIDS, WI
Time zone: UTC -6 (UTC -5 during Daylight Saving Time)
Zip code: 54495

Airport Operations

Airport use: Private use. Permission required prior to landing
Activation date: 01/1990
Control tower: no
ARTCC: MINNEAPOLIS CENTER
FSS: GREEN BAY FLIGHT SERVICE STATION
Attendance: UNATNDD
Wind indicator: yes
Segmented circle: no

Airport Communications

WX ASOS at ISW (9 nm S): 126.575 (715-421-2120)
WX ASOS at MFI (15 nm NW): 121.575 (715-387-6516)
WX AWOS-3 at STE (17 nm E): 119.275 (715-344-5960)
WX AWOS-3 at CWA (20 nm NE): 127.45 (715-693-1116)

Nearby radio navigation aids

VOR radial/distance  VOR name  Freq  Var
AUWr211/25.3WAUSAU VORTAC111.6002E

 
NDB name  Hdg/Dist  Freq  Var  ID
WISCONSIN RAPIDS339/8.521501WISW .. ... .--
CALIN113/11.126600EDU -.. ..-
NEPCO357/14.232601WEK . -.-
MARSHFIELD127/14.739100EMFI -- ..-. ..
NEILLSVILLE099/26.036801WVIQ ...- .. --.-
WAUPACA285/39.538201WPCZ .--. -.-. --..

Airport Services

Runway Information

Runway 9/27

Dimensions: 1400 x 80 ft. / 427 x 24 m
Surface: turf
RUNWAY 9  RUNWAY 27
Traffic pattern: leftleft

Airport Ownership and Management from official FAA records

Ownership: Privately-owned
Owner: DONALD WINCH
3813 CTY C
WISCONSIN RAPIDS, WI 54496
Phone 715-435-3644
Manager: DONALD WINCH
3813 CIY C
WISCONSIN RAPIDS, WI 54496
Phone 715-435-3644

Airport Operational Statistics

Aircraft based on the field: 1
Single engine airplanes: 1
    

Instrument Procedures

There are no published instrument procedures at 6WI1.

Some nearby airports with instrument procedures:

KISW - Alexander Field South Wood County Airport (9 nm S)
KMFI - Marshfield Municipal Airport (15 nm NW)
KSTE - Stevens Point Municipal Airport (17 nm E)
KCWA - Central Wisconsin Airport (20 nm NE)
KVIQ - Neillsville Municipal Airport (26 nm W)
 
Loc | Ops | Rwys | IFR | FBO | Links
Com | Nav | Svcs | Stats | Notes


 
Area around 6WI1 (Winch Airfield)
 
Road maps at: MapQuest Bing Google
 
Aerial photo
No photo
 
Sectional chart

 
Airport distance calculator
Flying to Winch Airfield? Find the distance to fly.

From to 6WI1

Sunrise and sunset
Times for 17-Dec-2017
 Local
(UTC-6)
 Zulu
(UTC)
Morning civil twilight06:5812:58
Sunrise07:3213:32
Sunset16:2022:20
Evening civil twilight16:5322:53

Current date and time
Zulu (UTC)  17-Dec-2017 11:01:33
Local (UTC-6)  17-Dec-2017 05:01:33
 
METAR
KISW 
8nm SE 
171054Z AUTO 07007KT 10SM OVC012 M04/M07 A3013 RMK AO2 SLP220 T10441072
KMFI 
14nm NW 
171054Z AUTO 09008KT 10SM OVC008 M05/M07 A3009 RMK AO2 SLP212 T10501067 TSNO
KSTE 
17nm E 
171055Z AUTO 06004KT 10SM OVC011 M06/M06 A3013 RMK AO2 T10581062
KCWA 
19nm NE 
171055Z AUTO 09005KT 10SM OVC010 M05/M05 A3012 RMK AO2
TAF
KCWA 
19nm NE 
171013Z 1710/1806 09005KT P6SM SCT009 OVC012 TEMPO 1710/1712 BKN009 FM171200 VRB03KT P6SM OVC008 FM171700 VRB03KT P6SM OVC013
NOTAMs
Click for the latest NOTAMs
NOTAMs are issued by the DoD/FAA and will open in a separate window not controlled by AirNav.

 

 
 

Would you like to see your business listed on this page?

 If your business provides an interesting product or service to pilots, flight crews, aircraft, or users of the Winch Airfield, you should consider listing it here.  To start the listing process, click on the button below
 
Add a business
 

Other Pages about Winch Airfield

Update a link
 
Copyright © AirNav, LLC. All rights reserved. Privacy Policy  Contact